This is the latest recevied weather packets stored in our database for station/object DELTON-WX. If no packets are shown the sender has not sent any weather packets the latest 10 day(s).
| Time | Temp. | Humidity | Pressure | Rain* | Wind** | Luminosity | Snow |
|---|---|---|---|---|---|---|---|
| 1778040948 | 6.67° C | 68% | 976.8 hPa | 0 mm | - | - | - |
| 1778040087 | 6.67° C | 68% | 976.8 hPa | 0 mm | - | - | - |
| 1778039146 | 6.67° C | 62% | 976.4 hPa | 0 mm | - | - | - |
| 1778037348 | 7.78° C | 57% | 976.4 hPa | 0 mm | - | - | - |
| 1778036488 | 7.78° C | 57% | 976.4 hPa | 0 mm | - | - | - |
| 1778035547 | 7.78° C | 53% | 976.4 hPa | 0 mm | - | - | - |
| 1778034665 | 7.78° C | 50% | 976.6 hPa | 0 mm | - | - | - |
| 1778033746 | 7.78° C | 50% | 976.6 hPa | 0 mm | - | - | - |
| 1778032872 | 8.33° C | 50% | 976.6 hPa | 0 mm | - | - | - |
| 1778031947 | 8.33° C | 45% | 976.1 hPa | 0 mm | - | - | - |
| 1778031068 | 8.33° C | 45% | 976.1 hPa | 0 mm | - | - | - |
| 1778030146 | 7.78° C | 45% | 976 hPa | 0 mm | - | - | - |
| 1778029275 | 7.78° C | 45% | 976 hPa | 0 mm | - | - | - |
| 1778028345 | 8.33° C | 39% | 976 hPa | 0 mm | - | - | - |
| 1778027461 | 8.89° C | 39% | 976.6 hPa | 0 mm | - | - | - |
| 1778026546 | 9.44° C | 39% | 976.6 hPa | 0 mm | - | - | - |
| 1778025681 | 10° C | 39% | 976.6 hPa | 0 mm | - | - | - |
| 1778024746 | 10° C | 38% | 976.3 hPa | 0 mm | - | - | - |
| 1778023864 | 10.56° C | 37% | 976.3 hPa | 0 mm | - | - | - |
| 1778022947 | 10.56° C | 37% | 976.3 hPa | 0 mm | - | - | - |
| 1778022074 | 10.56° C | 37% | 976.3 hPa | 0 mm | - | - | - |
| 1778021148 | 10.56° C | 37% | 976.3 hPa | 0 mm | - | - | - |
| 1778020266 | 11.11° C | 39% | 976.6 hPa | 0 mm | - | - | - |
| 1778019346 | 11.67° C | 39% | 976.7 hPa | 0 mm | - | - | - |
| 1778018477 | 11.67° C | 39% | 976.7 hPa | 0 mm | - | - | - |
* Rain latest hour (hover to see other rain measurements)
** Current wind speed in m/s (hover to see current wind gust speed)